Weather History for KVVV - December, 2012

Change the Weather History Date:

Wednesday, December 19, 2012

  Actual Average (KAQP) Record (KAQP)
Temperature  
Mean Temperature 22 °F -  
Max Temperature 26 °F 22 °F 46 °F (2006)
Min Temperature 17 °F 6 °F -18 °F (1996)
Degree Days  
Heating Degree Days 44    
Moisture  
Dew Point 15 °F    
Average Humidity 76    
Maximum Humidity 93    
Minimum Humidity 59    
Precipitation  
Precipitation 0.00 in - - ()
Sea Level Pressure  
Sea Level Pressure 29.92 in    
Wind  
Wind Speed 6 mph (NW)    
Max Wind Speed 15 mph    
Max Gust Speed 20 mph    
Visibility 10 miles    
Events      
Averages and records for this station are not official NWS values.
T = Trace of Precipitation, MM = Missing Value Source: NWS Daily Summary

Daily Weather History Graph

Daily Weather History Graph

Search for Another Location

Airport or City:

Trip Planner

Search our weather history database for the weather conditions in past years. The results will help you decide how hot, cold, wet, or windy it might be!

Date:

Astronomy

Dec. 19, 2012 Rise Set
Actual Time 8:01 AM CST 4:45 PM CST
Civil Twilight 7:27 AM CST 5:19 PM CST
Nautical Twilight 6:49 AM CST 5:56 PM CST
Astronomical Twilight 6:13 AM CST 6:32 PM CST
Moon 11:52 AM CST (12/19) No Moon Set
Length of Visible Light 9h 52m
Length of Day
8h 43m
Waxing Crescent, 45% of the Moon is Illuminated
Dec 19
Waxing Crescent
Dec 19
First Quarter
Dec 28
Full
Jan 4
Last Quarter
Jan 11
New

Hourly Weather History & Observations

Time (CST) Temp. Windchill Dew Point Humidity Pressure Visibility Wind Dir Wind Speed Gust Speed Precip Events Conditions
12:14 AM 19.4 °F 11.5 °F 17.6 °F 93% 29.78 in 10.0 mi NNW 5.8 mph - N/A   Clear
12:34 AM 19.4 °F 12.8 °F 15.8 °F 86% 29.78 in 10.0 mi NNW 4.6 mph - N/A   Clear
12:54 AM 19.4 °F 12.8 °F 15.8 °F 86% 29.78 in 10.0 mi NNW 4.6 mph - N/A   Clear
1:14 AM 21.2 °F 12.6 °F 17.6 °F 86% 29.79 in 10.0 mi NNW 6.9 mph - N/A   Clear
1:34 AM 21.2 °F - 17.6 °F 86% 29.79 in 10.0 mi Calm Calm - N/A   Clear
1:53 AM 23.0 °F 14.7 °F 17.6 °F 80% 29.80 in 10.0 mi NNW 6.9 mph - N/A   Clear
2:14 AM 24.8 °F 14.6 °F 19.4 °F 80% 29.80 in 10.0 mi NNW 10.4 mph - N/A   Clear
2:34 AM 24.8 °F 16.9 °F 17.6 °F 74% 29.81 in 10.0 mi NNW 6.9 mph - N/A   Clear
2:54 AM 24.8 °F 16.1 °F 17.6 °F 74% 29.81 in 10.0 mi NNW 8.1 mph - N/A   Clear
3:14 AM 21.2 °F 11.7 °F 17.6 °F 86% 29.81 in 10.0 mi NNW 8.1 mph - N/A   Clear
3:34 AM 21.2 °F 12.6 °F 15.8 °F 80% 29.82 in 10.0 mi NNW 6.9 mph - N/A   Clear
3:54 AM 21.2 °F 13.6 °F 15.8 °F 80% 29.81 in 10.0 mi NNW 5.8 mph - N/A   Clear
4:14 AM 21.2 °F 12.6 °F 15.8 °F 80% 29.81 in 10.0 mi NNW 6.9 mph - N/A   Clear
4:34 AM 21.2 °F 13.6 °F 15.8 °F 80% 29.82 in 10.0 mi NNW 5.8 mph - N/A   Clear
4:54 AM 21.2 °F 14.9 °F 15.8 °F 80% 29.83 in 10.0 mi NNW 4.6 mph - N/A   Clear
5:14 AM 21.2 °F 14.9 °F 15.8 °F 80% 29.83 in 10.0 mi NNW 4.6 mph - N/A   Clear
5:34 AM 21.2 °F 16.4 °F 15.8 °F 80% 29.83 in 10.0 mi NNW 3.5 mph - N/A   Clear
5:54 AM 21.2 °F 14.9 °F 15.8 °F 80% 29.83 in 10.0 mi NNW 4.6 mph - N/A   Clear
6:14 AM 21.2 °F 14.9 °F 15.8 °F 80% 29.84 in 10.0 mi NNW 4.6 mph - N/A   Clear
6:34 AM 19.4 °F 14.3 °F 15.8 °F 86% 29.84 in 10.0 mi NNW 3.5 mph - N/A   Clear
6:54 AM 19.4 °F - 15.8 °F 86% 29.85 in 10.0 mi Calm Calm - N/A   Clear
7:13 AM 17.6 °F - 14.0 °F 86% 29.86 in 10.0 mi Calm Calm - N/A   Clear
7:34 AM 17.6 °F - 14.0 °F 86% 29.86 in 10.0 mi Calm Calm - N/A   Clear
7:53 AM 19.4 °F 12.8 °F 14.0 °F 80% 29.87 in 10.0 mi NNW 4.6 mph - N/A   Clear
8:14 AM 19.4 °F 10.4 °F 14.0 °F 80% 29.87 in 10.0 mi NNW 6.9 mph - N/A   Clear
8:34 AM 19.4 °F 12.8 °F 12.2 °F 74% 29.88 in 10.0 mi NNW 4.6 mph - N/A   Clear
8:54 AM 19.4 °F - 14.0 °F 80% 29.88 in 10.0 mi Calm Calm - N/A   Clear
9:14 AM 21.2 °F 13.6 °F 14.0 °F 74% 29.89 in 10.0 mi NNW 5.8 mph - N/A   Clear
9:34 AM 21.2 °F 13.6 °F 14.0 °F 74% 29.89 in 10.0 mi NNW 5.8 mph - N/A   Clear
9:54 AM 23.0 °F 17.0 °F 15.8 °F 74% 29.90 in 10.0 mi NNW 4.6 mph - N/A   Clear
10:14 AM 24.8 °F 16.9 °F 15.8 °F 69% 29.91 in 10.0 mi NNW 6.9 mph - N/A   Clear
10:34 AM 24.8 °F 16.1 °F 15.8 °F 69% 29.93 in 10.0 mi NNW 8.1 mph - N/A   Clear
10:54 AM 26.6 °F 19.1 °F 17.6 °F 69% 29.93 in 10.0 mi NNW 6.9 mph - N/A   Clear
11:14 AM 26.6 °F 19.1 °F 17.6 °F 69% 29.94 in 10.0 mi NNW 6.9 mph - N/A   Clear
11:34 AM 26.6 °F 18.2 °F 17.6 °F 69% 29.93 in 10.0 mi NNW 8.1 mph - N/A   Clear
11:54 AM 26.6 °F 17.5 °F 17.6 °F 69% 29.93 in 10.0 mi NNW 9.2 mph - N/A   Clear
12:14 PM 26.6 °F 17.5 °F 17.6 °F 69% 29.93 in 10.0 mi WNW 9.2 mph - N/A   Clear
12:34 PM 26.6 °F 16.8 °F 17.6 °F 69% 29.94 in 10.0 mi WNW 10.4 mph - N/A   Clear
12:54 PM 24.8 °F 12.9 °F 15.8 °F 69% 29.94 in 10.0 mi WNW 13.8 mph - N/A   Clear
1:14 PM 24.8 °F 12.4 °F 15.8 °F 69% 29.95 in 10.0 mi WNW 15.0 mph 19.6 mph N/A   Scattered Clouds
1:34 PM 24.8 °F 15.3 °F 15.8 °F 69% 29.95 in 10.0 mi WNW 9.2 mph - N/A   Clear
1:54 PM 24.8 °F 15.3 °F 15.8 °F 69% 29.95 in 10.0 mi NW 9.2 mph - N/A   Clear
2:13 PM 24.8 °F 16.1 °F 15.8 °F 69% 29.95 in 10.0 mi West 8.1 mph - N/A   Clear
2:34 PM 24.8 °F 17.9 °F 15.8 °F 69% 29.96 in 10.0 mi WNW 5.8 mph - N/A   Clear
2:54 PM 24.8 °F 15.3 °F 12.2 °F 59% 29.96 in 10.0 mi WNW 9.2 mph - N/A   Clear
3:14 PM 24.8 °F 16.1 °F 12.2 °F 59% 29.97 in 10.0 mi WNW 8.1 mph - N/A   Clear
3:34 PM 23.0 °F 12.4 °F 12.2 °F 63% 29.97 in 10.0 mi NNW 10.4 mph 16.1 mph N/A   Clear
3:53 PM 21.2 °F 10.9 °F 12.2 °F 68% 29.97 in 10.0 mi WNW 9.2 mph - N/A   Clear
4:14 PM 21.2 °F 11.7 °F 12.2 °F 68% 29.98 in 10.0 mi WNW 8.1 mph - N/A   Clear
4:33 PM 21.2 °F 13.6 °F 12.2 °F 68% 29.98 in 10.0 mi WNW 5.8 mph - N/A   Clear
4:54 PM 21.2 °F 11.7 °F 12.2 °F 68% 29.98 in 10.0 mi NW 8.1 mph - N/A   Clear
5:14 PM 19.4 °F 12.8 °F 12.2 °F 74% 29.99 in 10.0 mi NW 4.6 mph - N/A   Clear
5:34 PM 19.4 °F 10.4 °F 12.2 °F 74% 30.00 in 10.0 mi NW 6.9 mph - N/A   Clear
5:53 PM 19.4 °F 9.5 °F 12.2 °F 74% 30.01 in 10.0 mi NW 8.1 mph - N/A   Clear
6:14 PM 19.4 °F 10.4 °F 12.2 °F 74% 30.01 in 10.0 mi NW 6.9 mph - N/A   Clear
6:34 PM 17.6 °F 6.4 °F 12.2 °F 79% 30.01 in 10.0 mi NW 9.2 mph - N/A   Clear
6:53 PM 17.6 °F - 12.2 °F 79% 30.04 in 10.0 mi Calm Calm - N/A   Clear
7:14 PM 17.6 °F 5.7 °F 12.2 °F 79% 30.04 in 10.0 mi WNW 10.4 mph - N/A   Clear
7:33 PM 19.4 °F 8.6 °F 12.2 °F 74% 30.04 in 10.0 mi WNW 9.2 mph - N/A   Clear
7:54 PM 19.4 °F 10.4 °F 12.2 °F 74% 30.04 in 10.0 mi WNW 6.9 mph - N/A   Scattered Clouds
8:13 PM 19.4 °F 9.5 °F 12.2 °F 74% 30.04 in 10.0 mi WNW 8.1 mph - N/A   Mostly Cloudy
8:34 PM 19.4 °F 10.4 °F 12.2 °F 74% 30.04 in 10.0 mi WNW 6.9 mph - N/A   Mostly Cloudy
8:54 PM 17.6 °F 10.7 °F 12.2 °F 79% 30.03 in 10.0 mi WNW 4.6 mph - N/A   Scattered Clouds
9:14 PM 19.4 °F 8.6 °F 12.2 °F 74% 30.02 in 10.0 mi NW 9.2 mph - N/A   Mostly Cloudy
9:34 PM 19.4 °F 8.6 °F 12.2 °F 74% 30.01 in 10.0 mi NW 9.2 mph - N/A   Overcast
9:54 PM 19.4 °F 7.9 °F 12.2 °F 74% 30.01 in 10.0 mi NNW 10.4 mph - N/A   Mostly Cloudy
10:14 PM 19.4 °F 7.9 °F 12.2 °F 74% 30.00 in 10.0 mi NNW 10.4 mph - N/A   Overcast
10:33 PM 19.4 °F 7.9 °F 12.2 °F 74% 30.01 in 10.0 mi NW 10.4 mph - N/A   Overcast
10:54 PM 19.4 °F 9.5 °F 12.2 °F 74% 30.02 in 10.0 mi NW 8.1 mph - N/A   Overcast
11:14 PM 19.4 °F 8.6 °F 14.0 °F 80% 30.02 in 10.0 mi NW 9.2 mph - N/A   Overcast
11:34 PM 19.4 °F 8.6 °F 14.0 °F 80% 30.03 in 10.0 mi NW 9.2 mph - N/A   Overcast
11:54 PM 19.4 °F 8.6 °F 14.0 °F 80% 30.03 in 10.0 mi NW 9.2 mph - N/A   Overcast